Weather History for CWZL - February, 2013

Change the Weather History Date:

Saturday, February 16, 2013

  Actual Average Record
Temperature  
Mean Temperature 42 °F -  
Max Temperature 45 °F - - ()
Min Temperature 38 °F - - ()
Degree Days  
Heating Degree Days 23    
Moisture  
Dew Point 35 °F    
Average Humidity 75    
Maximum Humidity 94    
Minimum Humidity 56    
Precipitation  
Precipitation 0.00 in - - ()
Sea Level Pressure  
Sea Level Pressure 30.16 in    
Wind  
Wind Speed 11 mph ()    
Max Wind Speed 25 mph    
Max Gust Speed -    
T = Trace of Precipitation, MM = Missing Value Source: Averaged Metar Reports

Daily Weather History Graph

Daily Weather History Graph

Search for Another Location

Airport or City:

Trip Planner

Search our weather history database for the weather conditions in past years. The results will help you decide how hot, cold, wet, or windy it might be!

Date:

Astronomy

Feb. 16, 2013 Rise Set
Actual Time 8:00 AM PST 6:00 PM PST
Civil Twilight 7:25 AM PST 6:36 PM PST
Nautical Twilight 6:44 AM PST 7:16 PM PST
Astronomical Twilight 6:04 AM PST 7:56 PM PST
Moon 10:17 AM PST (2/16) 1:05 AM PST (2/16)
Length of Visible Light 11h 11m
Length of Day
10h 00m
Waxing Crescent, 40% of the Moon is Illuminated
Feb 16
Waxing Crescent
Feb 17
First Quarter
Feb 25
Full
Mar 4
Last Quarter
Mar 11
New

Hourly Weather History & Observations

Time (PST) Temp. Windchill Dew Point Humidity Pressure Visibility Wind Dir Wind Speed Gust Speed Precip Events Conditions
12:00 AM 43.3 °F 39.9 °F 41.7 °F 94% 29.99 in - NNW 5.8 mph - N/A   Unknown
1:00 AM 42.1 °F 32.1 °F 40.5 °F 94% 29.99 in - North 25.3 mph - N/A   Unknown
2:00 AM 42.1 °F 32.1 °F 38.8 °F 88% 30.00 in - North 25.3 mph - N/A   Unknown
3:00 AM 41.7 °F 34.4 °F 38.7 °F 89% 30.03 in - NNW 13.8 mph - N/A   Unknown
4:00 AM 41 °F - 38 °F 85% 30.04 in - NW 6.9 mph - -  
4:00 AM 41.2 °F 36.6 °F 38.1 °F 89% 30.04 in - NW 6.9 mph - N/A   Unknown
5:00 AM 41.0 °F 35.2 °F 37.0 °F 86% 30.07 in - NW 9.2 mph - N/A   Unknown
6:00 AM 40.3 °F 34.4 °F 35.8 °F 84% 30.08 in - WNW 9.2 mph - N/A   Unknown
7:00 AM 39.7 °F 33.7 °F 34.2 °F 80% 30.09 in - NW 9.2 mph - N/A   Unknown
8:00 AM 39.9 °F 34.5 °F 33.8 °F 79% 30.11 in - NW 8.1 mph - N/A   Unknown
9:00 AM 39.9 °F 33.4 °F 34.7 °F 82% 30.14 in - WNW 10.4 mph - N/A   Unknown
10:00 AM 41 °F - 33 °F 65% 30.16 in - WNW 12.7 mph - -  
10:00 AM 41.0 °F 33.9 °F 33.3 °F 74% 30.16 in - WNW 12.7 mph - N/A   Unknown
11:00 AM 41.9 °F 35.0 °F 31.8 °F 67% 30.18 in - WNW 12.7 mph - N/A   Unknown
12:00 PM 42.8 °F 35.8 °F 31.6 °F 65% 30.19 in - WNW 13.8 mph - N/A   Unknown
1:00 PM 43.7 °F 37.3 °F 32.9 °F 66% 30.21 in - West 12.7 mph - N/A   Unknown
2:00 PM 44.2 °F 37.6 °F 33.1 °F 65% 30.22 in - WNW 13.8 mph - N/A   Unknown
3:00 PM 44.8 °F 38.0 °F 33.8 °F 65% 30.22 in - West 15.0 mph - N/A   Unknown
4:00 PM 45 °F - 35 °F 56% 30.22 in - WNW 12.7 mph - -  
4:00 PM 44.6 °F 38.4 °F 34.5 °F 68% 30.22 in - WNW 12.7 mph - N/A   Unknown
5:00 PM 43.7 °F 36.9 °F 35.4 °F 73% 30.25 in - WNW 13.8 mph - N/A   Unknown
6:00 PM 42.3 °F 35.1 °F 33.4 °F 71% 30.26 in - WNW 13.8 mph - N/A   Unknown
7:00 PM 41.4 °F 34.7 °F 31.5 °F 68% 30.26 in - WNW 11.5 mph - N/A   Unknown
8:00 PM 40.5 °F 33.2 °F 32.0 °F 72% 30.28 in - WNW 12.7 mph - N/A   Unknown
9:00 PM 39.7 °F 33.7 °F 31.5 °F 72% 30.28 in - NW 9.2 mph - N/A   Unknown
10:00 PM 39 °F - 32 °F 66% 30.29 in - West 8.1 mph - -  
10:00 PM 39.2 °F 33.6 °F 31.6 °F 74% 30.29 in - West 8.1 mph - N/A   Unknown
11:00 PM 38.8 °F 32.6 °F 31.3 °F 74% 30.30 in - WNW 9.2 mph - N/A   Unknown